Home   Weather   Fairfield Park   Past weeks
Flag for USA

Past Weather in Fairfield Park, South Carolina, USA — Yesterday and Last 2 Weeks

Now
81 °F

Clear.


Feels Like: 85 °F
Forecast: 89 / 70 °F
Wind: No wind

Location: Spartanburg Memorial

Current Time: Jul 4, 2020 at 9:37:19 pm

Latest Report: Jul 4, 2020 at 8:55 pm


Visibility: 10 mi

Pressure: 29.92 "Hg

Humidity: 74%

Dew Point: 72 °F

Location of Fairfield ParkLocation

Past Weather in Fairfield Park — Graph

°F

Fairfield Park Temperature Yesterday

Maximum temperature yesterday: 91 °F (at 4:35 pm)
Minimum temperature yesterday: 70 °F (at 4:35 am)
Average temperature yesterday: 80 °F

High & Low Weather Summary for the Past Weeks

 TemperatureHumidityPressure
High91 °F (Jun 28, 1:55 pm)100% (Jun 19, 10:15 pm)30.20 "Hg (Jun 19, 10:15 pm)
Low61 °F (Jun 20, 6:15 am)36% (Jun 21, 3:15 pm)29.82 "Hg (Jun 23, 5:35 pm)
Average76 °F73%29.98 "Hg
* Reported Jun 19 8:15 pm — Jul 4 8:15 pm, Fairfield Park. Weather by CustomWeather, © 2020

Note: Actual official high and low records may vary slightly from our data, if they occured in-between our weather recording intervals... More about our weather records

Fairfield Park Weather History for the Previous 24 Hours

Scroll right to see more
 ConditionsComfort  
Time TempWeatherWind HumidityBarometerVisibility
8:15 pm
Sat, Jul 4
82 °FSunny.No wind70%29.91 "Hg10 mi
7:55 pm84 °FSunny.No wind66%29.91 "Hg10 mi
7:35 pm86 °FSunny.No wind59%29.91 "Hg10 mi
7:15 pm86 °FSunny.No wind59%29.90 "Hg10 mi
6:35 pm90 °FSunny.3 mph43%29.90 "Hg10 mi
6:15 pm90 °FSunny.No wind43%29.90 "Hg10 mi
5:35 pm91 °FSunny.7 mph41%29.92 "Hg10 mi
5:15 pm91 °FSunny.5 mph41%29.92 "Hg10 mi
4:55 pm90 °FSunny.6 mph43%29.93 "Hg10 mi
4:35 pm90 °FScattered clouds.5 mph46%29.93 "Hg10 mi
4:15 pm91 °FSunny.6 mph41%29.93 "Hg7 mi
3:35 pm90 °FScattered clouds.3 mph43%29.95 "Hg10 mi
3:15 pm90 °FBroken clouds.3 mph43%29.95 "Hg10 mi
2:55 pm90 °FPartly sunny.5 mph43%29.95 "Hg10 mi
2:35 pm91 °FSunny.3 mph41%29.95 "Hg10 mi
2:15 pm90 °FScattered clouds.3 mph43%29.96 "Hg10 mi
1:55 pm88 °FBroken clouds.No wind46%29.96 "Hg7 mi
1:35 pm90 °FPartly sunny.No wind43%29.97 "Hg10 mi
1:15 pm88 °FScattered clouds.No wind46%29.97 "Hg7 mi
12:55 pm88 °FSunny.5 mph49%29.97 "Hg10 mi
12:35 pm88 °FSunny.6 mph46%29.98 "Hg10 mi
12:15 pm88 °FSunny.3 mph52%29.99 "Hg10 mi
11:55 am86 °FSunny.5 mph52%29.99 "Hg10 mi
11:35 am86 °FSunny.6 mph49%29.99 "Hg10 mi
11:15 am86 °FSunny.3 mph49%29.99 "Hg10 mi
10:55 am82 °FSunny.No wind62%29.99 "Hg10 mi
10:35 am82 °FSunny.3 mph62%29.99 "Hg10 mi
10:15 am81 °FSunny.3 mph66%29.99 "Hg10 mi
9:35 am79 °FScattered clouds.No wind70%29.98 "Hg10 mi
9:15 am77 °FScattered clouds.No wind74%29.98 "Hg10 mi
8:15 am75 °FPartly sunny.No wind78%29.97 "Hg10 mi
7:55 am73 °FScattered clouds.No wind83%29.97 "Hg10 mi
7:35 am73 °FBroken clouds.No wind83%29.97 "Hg10 mi
7:15 am72 °FOvercast.No wind94%29.97 "Hg7 mi
6:55 am72 °FOvercast.No wind88%29.96 "Hg10 mi
6:35 am72 °FOvercast.No wind88%29.96 "Hg10 mi
6:15 am72 °FOvercast.No wind88%29.96 "Hg10 mi
5:55 am72 °FMostly cloudy.No wind88%29.95 "Hg10 mi
5:35 am72 °FMostly cloudy.No wind88%29.95 "Hg10 mi
5:15 am72 °FOvercast.No wind94%29.95 "Hg10 mi
4:55 am72 °FPassing clouds.No wind94%29.95 "Hg10 mi
4:35 am72 °FClear.No wind88%29.96 "Hg10 mi
4:15 am72 °FPassing clouds.No wind88%29.96 "Hg10 mi
3:55 am72 °FPassing clouds.No wind88%29.96 "Hg7 mi
3:35 am72 °FPassing clouds.No wind88%29.95 "Hg10 mi
3:15 am73 °FClear.No wind83%29.96 "Hg10 mi
2:55 am73 °FPassing clouds.No wind83%29.96 "Hg7 mi
2:35 am73 °FMostly cloudy.No wind83%29.96 "Hg10 mi
2:15 am73 °FPartly cloudy.No wind89%29.96 "Hg10 mi
1:55 am75 °FOvercast.No wind78%29.96 "Hg10 mi
1:35 am77 °FPassing clouds.No wind74%29.97 "Hg10 mi
1:15 am75 °FPassing clouds.No wind78%29.97 "Hg10 mi
12:35 am77 °FOvercast.3 mph74%29.97 "Hg7 mi
12:15 am77 °FOvercast.3 mph74%29.97 "Hg10 mi
11:55 pm
Fri, Jul 3
77 °FPassing clouds.No wind74%29.97 "Hg10 mi
11:35 pm79 °FPassing clouds.3 mph70%29.97 "Hg10 mi
11:15 pm79 °FPassing clouds.6 mph74%29.97 "Hg10 mi
10:55 pm79 °FPartly cloudy.No wind74%29.97 "Hg7 mi
10:35 pm81 °FPassing clouds.No wind66%29.97 "Hg10 mi
10:15 pm79 °FPassing clouds.No wind74%29.96 "Hg10 mi
9:55 pm79 °FPassing clouds.No wind70%29.95 "Hg10 mi
9:15 pm79 °FPassing clouds.No wind74%29.94 "Hg10 mi
Weather by CustomWeather, © 2020

See weather overview